This demonstration page uses our WeatherBlox Daily Observations layout. Learn more.

Left ArrowRight Arrow

Hourly Observations for July 20, 2018

Temp ( °F °C ) Dew Point ( °F °C ) Humidity (%) Winds ( mph kmh ) Pressure ( in mb ) Visibility ( mi km ) Precip ( " mm )
12:53 am 00:53 Clear 73 22.8 68 20 84 84 Calm 29.88 1012 10 16 0.00 0.00
1:53 am 01:53 Clear 72 22.2 67 19.4 84 84 N 3 6 29.87 1011 10 16 0.00 0.00
2:53 am 02:53 Mostly Clear 70 21.1 66 18.9 87 87 NNE 3 6 29.87 1011 10 16 0.00 0.00
3:53 am 03:53 Mostly Clear 68 20 66 18.9 93 93 Calm 29.88 1012 10 16 0.00 0.00
4:53 am 04:53 Clear 69 20.6 63 17.2 81 81 ENE 5 7 29.88 1012 10 16 0.00 0.00
5:53 am 05:53 Clear 68 20 60 15.6 76 76 ESE 5 7 29.88 1012 10 16 0.00 0.00
6:53 am 06:53 Sunny 67 19.4 61 16.1 81 81 NE 5 7 29.90 1012 10 16 0.00 0.00
7:53 am 07:53 Sunny 72 22.2 60 15.6 66 66 E 3 6 29.90 1012 10 16 0.00 0.00
8:53 am 08:53 Sunny 77 25 59 15 54 54 E 6 9 29.90 1013 10 16 0.00 0.00
9:53 am 09:53 Sunny 76 24.4 62 16.7 62 62 E 7 11 29.90 1012 10 16 0.00 0.00
10:16 am 10:16 Sunny with Thunderstorms 73 22.8 60 15.6 64 64 ENE 8 13 29.91 1013 10 16 0.00 0.00
10:50 am 10:50 Partly Cloudy with Light Rain 73 23 63 17 69 69 ESE 8 13 29.88 1012 10 16 0.00 0.03
10:51 am 10:51 Partly Cloudy with Light Rain 73 22.8 63 17.2 71 71 SE 8 13 29.93 1014 10 16 0.00 0.03
11:53 am 11:53 Partly Cloudy with Light Rain 72 22.2 64 17.8 76 76 SSE 6 9 29.93 1014 10 16 0.00 0.03
12:33 pm 12:33 Sunny with Nearby Thunderstorms 72 22 64 18 78 78 ENE 7 11 29.94 1014 10 16 0.00 0.00
12:48 pm 12:48 Sunny 73 23 64 18 74 74 ENE 9 15 29.91 1013 10 16 0.00 0.00
12:53 pm 12:53 Sunny 74 23.3 64 17.8 71 71 E 7 11 29.95 1014 10 16 0.00 0.03
1:53 pm 13:53 Sunny 77 25 63 17.2 62 62 NE 10 17 29.97 1015 10 16 0.00 0.00
2:53 pm 14:53 Sunny 81 27.2 65 18.3 58 58 NE 7 11 29.96 1015 10 16 0.00 0.00
3:53 pm 15:53 Sunny 86 30 65 18.3 49 49 SSE 6 9 29.92 1013 10 16 0.00 0.00
4:53 pm 16:53 Sunny 87 30.6 66 18.9 50 50 NE 7 11 29.92 1013 10 16 0.00 0.00
5:53 pm 17:53 Sunny 86 30 70 21.1 59 59 NE 9 15 29.93 1014 10 16 0.00 0.00
6:53 pm 18:53 Sunny 83 28.3 71 21.7 67 67 NE 10 17 29.95 1014 10 16 0.00 0.00
7:53 pm 19:53 Sunny 79 26.1 70 21.1 74 74 E 6 9 29.96 1014 10 16 0.00 0.00
8:53 pm 20:53 Sunny 75 23.9 69 20.6 82 82 ENE 5 7 29.96 1015 10 16 0.00 0.00
9:53 pm 21:53 Clear 72 22.2 68 20 87 87 ENE 3 6 29.98 1015 10 16 0.00 0.00
10:53 pm 22:53 Clear 71 21.7 67 19.4 87 87 Calm 30.00 1016 10 16 0.00 0.00
11:53 pm 23:53 Clear 70 21.1 66 18.9 87 87 Calm 30.01 1016 10 16 0.00 0.00

Powered by AerisWeather